Time,TemperatureF,DewpointF,PressureIn,WindDirection,WindDirectionDegrees,WindSpeedMPH,WindSpeedGustMPH,Humidity,HourlyPrecipIn,Conditions,Clouds,dailyrainin,SoftwareType,DateUTC
2013-03-29 00:03:00,66.0,57.0,30.09,SSE,153,8.0,14.0,74,0.00,,,0.00,,2013-03-29 04:03:00,
2013-03-29 00:12:00,66.0,57.0,30.09,SSE,153,8.0,14.0,74,0.00,,,0.00,,2013-03-29 04:12:00,
2013-03-29 00:22:00,66.0,57.0,30.09,SE,145,7.0,15.0,74,0.00,,,0.00,,2013-03-29 04:22:00,
2013-03-29 00:33:00,66.0,58.0,30.10,SSE,148,4.0,12.0,76,0.00,,,0.00,,2013-03-29 04:33:00,
2013-03-29 00:43:00,66.0,58.0,30.10,SSE,148,4.0,12.0,76,0.00,,,0.00,,2013-03-29 04:43:00,
2013-03-29 00:52:00,65.0,57.0,30.10,SE,134,6.0,12.0,76,0.00,,,0.00,,2013-03-29 04:52:00,
2013-03-29 01:03:00,65.0,58.0,30.10,SE,140,4.0,9.0,77,0.00,,,0.00,,2013-03-29 05:03:00,
2013-03-29 01:12:00,65.0,58.0,30.10,SE,140,4.0,9.0,77,0.00,,,0.00,,2013-03-29 05:12:00,
2013-03-29 01:23:00,64.0,57.0,30.10,SE,142,4.0,10.0,78,0.00,,,0.00,,2013-03-29 05:23:00,
2013-03-29 01:32:00,64.0,57.0,30.10,SE,141,5.0,9.0,79,0.00,,,0.00,,2013-03-29 05:32:00,
2013-03-29 01:43:00,64.0,57.0,30.10,SE,141,5.0,9.0,79,0.00,,,0.00,,2013-03-29 05:43:00,
2013-03-29 01:52:00,63.0,57.0,30.09,SE,136,5.0,10.0,80,0.00,,,0.00,,2013-03-29 05:52:00,
2013-03-29 02:02:00,63.0,57.0,30.10,SE,142,5.0,10.0,81,0.00,,,0.00,,2013-03-29 06:02:00,
2013-03-29 02:12:00,63.0,57.0,30.10,SE,142,5.0,10.0,81,0.00,,,0.00,,2013-03-29 06:12:00,
2013-03-29 02:23:00,63.0,57.0,30.10,SSE,148,6.0,12.0,82,0.00,,,0.00,,2013-03-29 06:23:00,
2013-03-29 02:32:00,63.0,57.0,30.10,SE,146,7.0,12.0,81,0.00,,,0.00,,2013-03-29 06:32:00,
2013-03-29 02:42:00,63.0,57.0,30.10,SE,146,7.0,12.0,81,0.00,,,0.00,,2013-03-29 06:42:00,
2013-03-29 02:52:00,63.0,57.0,30.11,SSE,156,7.0,12.0,82,0.00,,,0.00,,2013-03-29 06:52:00,
2013-03-29 03:02:00,62.0,56.0,30.10,SE,133,7.0,12.0,82,0.00,,,0.00,,2013-03-29 07:02:00,
2013-03-29 03:12:00,62.0,56.0,30.10,SE,133,7.0,12.0,82,0.00,,,0.00,,2013-03-29 07:12:00,
2013-03-29 03:22:00,62.0,57.0,30.10,SE,141,6.0,10.0,83,0.00,,,0.00,,2013-03-29 07:22:00,
2013-03-29 03:32:00,61.0,56.0,30.10,SE,144,6.0,12.0,84,0.00,,,0.00,,2013-03-29 07:32:00,
2013-03-29 03:42:00,61.0,56.0,30.10,SE,144,6.0,12.0,84,0.00,,,0.00,,2013-03-29 07:42:00,
2013-03-29 03:52:00,61.0,56.0,30.09,SE,146,6.0,13.0,84,0.00,,,0.00,,2013-03-29 07:52:00,
2013-03-29 04:02:00,61.0,56.0,30.09,SE,139,7.0,13.0,85,0.00,,,0.00,,2013-03-29 08:02:00,
2013-03-29 04:12:00,61.0,56.0,30.09,SE,139,7.0,13.0,85,0.00,,,0.00,,2013-03-29 08:12:00,
2013-03-29 04:22:00,60.0,56.0,30.10,SSE,153,5.0,13.0,86,0.00,,,0.00,,2013-03-29 08:22:00,
2013-03-29 04:32:00,60.0,56.0,30.09,SSE,156,5.0,15.0,86,0.00,,,0.00,,2013-03-29 08:32:00,
2013-03-29 04:42:00,60.0,56.0,30.09,SSE,156,5.0,15.0,86,0.00,,,0.00,,2013-03-29 08:42:00,
2013-03-29 04:53:00,61.0,57.0,30.09,SSE,156,7.0,13.0,86,0.00,,,0.00,,2013-03-29 08:53:00,
2013-03-29 05:02:00,61.0,56.0,30.09,SE,138,7.0,15.0,85,0.00,,,0.00,,2013-03-29 09:02:00,
2013-03-29 05:12:00,61.0,56.0,30.09,SE,138,7.0,15.0,85,0.00,,,0.00,,2013-03-29 09:12:00,
2013-03-29 05:22:00,61.0,56.0,30.09,SSE,155,7.0,14.0,84,0.00,,,0.00,,2013-03-29 09:22:00,
2013-03-29 05:32:00,61.0,56.0,30.09,SE,132,8.0,20.0,84,0.00,,,0.00,,2013-03-29 09:32:00,
2013-03-29 05:42:00,61.0,56.0,30.09,SE,132,8.0,20.0,84,0.00,,,0.00,,2013-03-29 09:42:00,
2013-03-29 05:52:00,61.0,56.0,30.09,SE,145,7.0,16.0,85,0.00,,,0.00,,2013-03-29 09:52:00,
2013-03-29 06:02:00,61.0,56.0,30.09,SSE,156,6.0,20.0,85,0.00,,,0.00,,2013-03-29 10:02:00,
2013-03-29 06:12:00,61.0,56.0,30.09,SSE,156,6.0,20.0,85,0.00,,,0.00,,2013-03-29 10:12:00,
2013-03-29 06:22:00,61.0,56.0,30.09,SSE,153,10.0,18.0,85,0.00,,,0.00,,2013-03-29 10:22:00,
2013-03-29 06:33:00,60.0,55.0,30.09,SSE,159,9.0,16.0,85,0.00,,,0.00,,2013-03-29 10:33:00,
2013-03-29 06:42:00,60.0,55.0,30.09,SSE,159,9.0,16.0,85,0.00,,,0.00,,2013-03-29 10:42:00,
2013-03-29 06:53:00,60.0,56.0,30.09,SSE,150,8.0,16.0,86,0.00,,,0.00,,2013-03-29 10:53:00,
2013-03-29 07:03:00,59.0,55.0,30.09,SSE,156,10.0,21.0,87,0.00,,,0.00,,2013-03-29 11:03:00,
2013-03-29 07:12:00,59.0,55.0,30.09,SSE,156,10.0,21.0,87,0.00,,,0.00,,2013-03-29 11:12:00,
2013-03-29 07:23:00,59.0,55.0,30.09,SSE,150,8.0,15.0,87,0.00,,,0.00,,2013-03-29 11:23:00,
2013-03-29 07:32:00,59.0,55.0,30.09,SSE,149,7.0,13.0,87,0.00,,,0.00,,2013-03-29 11:32:00,
2013-03-29 07:42:00,59.0,55.0,30.09,SSE,149,7.0,13.0,87,0.00,,,0.00,,2013-03-29 11:42:00,
2013-03-29 07:52:00,59.0,55.0,30.10,SSE,153,7.0,21.0,87,0.00,,,0.00,,2013-03-29 11:52:00,
2013-03-29 08:02:00,59.0,55.0,30.11,SSE,158,10.0,20.0,88,0.00,,,0.00,,2013-03-29 12:02:00,
2013-03-29 08:12:00,59.0,55.0,30.11,SSE,158,10.0,20.0,88,0.00,,,0.00,,2013-03-29 12:12:00,
2013-03-29 08:22:00,59.0,55.0,30.11,SSE,161,6.0,13.0,88,0.00,,,0.00,,2013-03-29 12:22:00,
2013-03-29 08:32:00,59.0,55.0,30.12,ESE,121,8.0,20.0,88,0.00,,,0.00,,2013-03-29 12:32:00,
2013-03-29 08:42:00,59.0,55.0,30.12,ESE,121,8.0,20.0,88,0.00,,,0.00,,2013-03-29 12:42:00,
2013-03-29 08:53:00,59.0,55.0,30.13,SE,144,5.0,12.0,88,0.00,,,0.00,,2013-03-29 12:53:00,
2013-03-29 09:02:00,59.0,55.0,30.14,SE,146,5.0,16.0,88,0.00,,,0.00,,2013-03-29 13:02:00,
2013-03-29 09:12:00,59.0,55.0,30.14,SE,146,5.0,16.0,88,0.00,,,0.00,,2013-03-29 13:12:00,
2013-03-29 09:22:00,59.0,55.0,30.14,SSE,150,6.0,13.0,88,0.00,,,0.00,,2013-03-29 13:22:00,
2013-03-29 09:32:00,59.0,55.0,30.14,SSE,150,5.0,12.0,88,0.00,,,0.00,,2013-03-29 13:32:00,
2013-03-29 09:42:00,59.0,55.0,30.14,SSE,150,5.0,12.0,88,0.00,,,0.00,,2013-03-29 13:42:00,
2013-03-29 09:53:00,59.0,55.0,30.15,SSE,157,7.0,12.0,88,0.00,,,0.00,,2013-03-29 13:53:00,
2013-03-29 10:02:00,60.0,56.0,30.15,SE,138,7.0,20.0,87,0.00,,,0.00,,2013-03-29 14:02:00,
2013-03-29 10:12:00,60.0,56.0,30.15,SE,138,7.0,20.0,87,0.00,,,0.00,,2013-03-29 14:12:00,
2013-03-29 10:22:00,60.0,56.0,30.15,SSE,153,7.0,14.0,86,0.00,,,0.00,,2013-03-29 14:22:00,
2013-03-29 10:32:00,61.0,57.0,30.15,South,177,8.0,16.0,86,0.00,,,0.00,,2013-03-29 14:32:00,
2013-03-29 10:42:00,61.0,57.0,30.15,South,177,8.0,16.0,86,0.00,,,0.00,,2013-03-29 14:42:00,
2013-03-29 10:52:00,61.0,56.0,30.15,South,171,9.0,14.0,85,0.00,,,0.00,,2013-03-29 14:52:00,
2013-03-29 11:02:00,61.0,56.0,30.15,SSE,148,8.0,21.0,85,0.00,,,0.00,,2013-03-29 15:02:00,
2013-03-29 11:12:00,61.0,56.0,30.15,SSE,148,8.0,21.0,85,0.00,,,0.00,,2013-03-29 15:12:00,
2013-03-29 11:22:00,62.0,56.0,30.15,SSE,155,9.0,18.0,82,0.00,,,0.00,,2013-03-29 15:22:00,
2013-03-29 11:33:00,63.0,57.0,30.14,SSE,155,10.0,21.0,81,0.00,,,0.00,,2013-03-29 15:33:00,
2013-03-29 11:43:00,63.0,57.0,30.14,SSE,155,10.0,21.0,81,0.00,,,0.00,,2013-03-29 15:43:00,
2013-03-29 11:53:00,63.0,57.0,30.14,SE,137,12.0,20.0,80,0.00,,,0.00,,2013-03-29 15:53:00,
2013-03-29 12:03:00,64.0,57.0,30.14,SE,136,13.0,20.0,79,0.00,,,0.00,,2013-03-29 16:03:00,
2013-03-29 12:12:00,64.0,57.0,30.14,SE,136,13.0,20.0,79,0.00,,,0.00,,2013-03-29 16:12:00,
2013-03-29 12:23:00,64.0,57.0,30.15,SE,134,7.0,16.0,79,0.00,,,0.00,,2013-03-29 16:23:00,
2013-03-29 12:32:00,65.0,57.0,30.14,South,175,12.0,22.0,76,0.00,,,0.00,,2013-03-29 16:32:00,
2013-03-29 12:42:00,65.0,57.0,30.14,South,175,12.0,22.0,76,0.00,,,0.00,,2013-03-29 16:42:00,
2013-03-29 12:53:00,67.0,58.0,30.14,SE,137,11.0,20.0,72,0.00,,,0.00,,2013-03-29 16:53:00,
2013-03-29 13:03:00,67.0,57.0,30.14,SSE,155,12.0,21.0,70,0.00,,,0.00,,2013-03-29 17:03:00,
2013-03-29 13:12:00,67.0,57.0,30.14,SSE,155,12.0,21.0,70,0.00,,,0.00,,2013-03-29 17:12:00,
2013-03-29 13:22:00,68.0,57.0,30.13,SSE,155,11.0,22.0,69,0.00,,,0.00,,2013-03-29 17:22:00,
2013-03-29 13:33:00,68.0,57.0,30.13,South,171,10.0,22.0,69,0.00,,,0.00,,2013-03-29 17:33:00,
2013-03-29 13:42:00,68.0,57.0,30.13,South,171,10.0,22.0,69,0.00,,,0.00,,2013-03-29 17:42:00,
2013-03-29 13:52:00,69.0,58.0,30.12,SE,130,10.0,21.0,68,0.00,,,0.00,,2013-03-29 17:52:00,
2013-03-29 14:02:00,69.0,58.0,30.12,SSE,166,11.0,21.0,68,0.00,,,0.00,,2013-03-29 18:02:00,
2013-03-29 14:12:00,69.0,58.0,30.12,SSE,166,11.0,21.0,68,0.00,,,0.00,,2013-03-29 18:12:00,
2013-03-29 14:22:00,70.0,59.0,30.11,South,188,9.0,24.0,68,0.00,,,0.00,,2013-03-29 18:22:00,
2013-03-29 14:32:00,70.0,58.0,30.10,SSE,162,12.0,26.0,66,0.00,,,0.00,,2013-03-29 18:32:00,
2013-03-29 14:42:00,70.0,58.0,30.10,SSE,162,12.0,26.0,66,0.00,,,0.00,,2013-03-29 18:42:00,
2013-03-29 14:52:00,71.0,58.0,30.09,South,175,11.0,18.0,64,0.00,,,0.00,,2013-03-29 18:52:00,
2013-03-29 15:02:00,71.0,58.0,30.09,South,169,10.0,22.0,63,0.00,,,0.00,,2013-03-29 19:02:00,
2013-03-29 15:12:00,73.0,59.0,30.08,SSE,165,10.0,21.0,62,0.00,,,0.00,,2013-03-29 19:12:00,
2013-03-29 15:23:00,73.0,59.0,30.08,SSE,165,10.0,21.0,62,0.00,,,0.00,,2013-03-29 19:23:00,
2013-03-29 15:32:00,73.0,58.0,30.07,SSE,161,9.0,20.0,60,0.00,,,0.00,,2013-03-29 19:32:00,
2013-03-29 15:42:00,73.0,58.0,30.07,SSE,161,9.0,20.0,60,0.00,,,0.00,,2013-03-29 19:42:00,
2013-03-29 15:52:00,74.0,59.0,30.06,SSE,165,6.0,26.0,59,0.00,,,0.00,,2013-03-29 19:52:00,
2013-03-29 16:02:00,75.0,58.0,30.06,South,185,14.0,22.0,56,0.00,,,0.00,,2013-03-29 20:02:00,
2013-03-29 16:12:00,75.0,58.0,30.06,South,185,14.0,22.0,56,0.00,,,0.00,,2013-03-29 20:12:00,
2013-03-29 16:22:00,75.0,59.0,30.05,SSE,165,10.0,21.0,57,0.00,,,0.00,,2013-03-29 20:22:00,
2013-03-29 16:32:00,75.0,58.0,30.04,SSE,155,12.0,20.0,56,0.00,,,0.00,,2013-03-29 20:32:00,
2013-03-29 16:42:00,75.0,58.0,30.04,SSE,155,12.0,20.0,56,0.00,,,0.00,,2013-03-29 20:42:00,
2013-03-29 16:52:00,75.0,58.0,30.04,South,176,13.0,22.0,56,0.00,,,0.00,,2013-03-29 20:52:00,
2013-03-29 17:02:00,74.0,58.0,30.04,South,175,10.0,20.0,57,0.00,,,0.00,,2013-03-29 21:02:00,
2013-03-29 17:12:00,74.0,58.0,30.04,South,175,10.0,20.0,57,0.00,,,0.00,,2013-03-29 21:12:00,
2013-03-29 17:22:00,74.0,58.0,30.03,SSE,168,7.0,18.0,58,0.00,,,0.00,,2013-03-29 21:22:00,
2013-03-29 17:32:00,74.0,59.0,30.03,SSE,159,11.0,22.0,59,0.00,,,0.00,,2013-03-29 21:32:00,
2013-03-29 17:42:00,74.0,59.0,30.03,SSE,159,11.0,22.0,59,0.00,,,0.00,,2013-03-29 21:42:00,
2013-03-29 17:53:00,74.0,59.0,30.03,SE,134,13.0,23.0,60,0.00,,,0.00,,2013-03-29 21:53:00,
2013-03-29 18:03:00,73.0,58.0,30.03,SE,146,7.0,14.0,60,0.00,,,0.00,,2013-03-29 22:03:00,
2013-03-29 18:12:00,73.0,58.0,30.03,SE,146,7.0,14.0,60,0.00,,,0.00,,2013-03-29 22:12:00,
2013-03-29 18:22:00,74.0,59.0,30.03,SSE,148,12.0,20.0,59,0.00,,,0.00,,2013-03-29 22:22:00,
2013-03-29 18:33:00,73.0,58.0,30.03,South,173,8.0,16.0,60,0.00,,,0.00,,2013-03-29 22:33:00,
2013-03-29 18:42:00,73.0,58.0,30.03,South,173,8.0,16.0,60,0.00,,,0.00,,2013-03-29 22:42:00,
2013-03-29 18:53:00,73.0,59.0,30.03,SSE,148,9.0,14.0,61,0.00,,,0.00,,2013-03-29 22:53:00,
2013-03-29 19:02:00,73.0,59.0,30.03,SSE,160,8.0,20.0,62,0.00,,,0.00,,2013-03-29 23:02:00,
2013-03-29 19:12:00,73.0,59.0,30.03,SSE,160,8.0,20.0,62,0.00,,,0.00,,2013-03-29 23:12:00,
2013-03-29 19:22:00,72.0,59.0,30.03,SE,133,8.0,16.0,63,0.00,,,0.00,,2013-03-29 23:22:00,
2013-03-29 19:32:00,73.0,60.0,30.03,SE,136,10.0,18.0,63,0.00,,,0.00,,2013-03-29 23:32:00,
2013-03-29 19:42:00,73.0,60.0,30.03,SE,136,10.0,18.0,63,0.00,,,0.00,,2013-03-29 23:42:00,
2013-03-29 19:52:00,72.0,59.0,30.03,SE,136,7.0,14.0,63,0.00,,,0.00,,2013-03-29 23:52:00,
2013-03-29 20:03:00,72.0,59.0,30.02,SE,134,8.0,18.0,63,0.00,,,0.00,,2013-03-30 00:03:00,
2013-03-29 20:12:00,72.0,59.0,30.02,SE,134,8.0,18.0,63,0.00,,,0.00,,2013-03-30 00:12:00,
2013-03-29 20:22:00,72.0,59.0,30.02,ESE,120,9.0,18.0,64,0.00,,,0.00,,2013-03-30 00:22:00,
2013-03-29 20:32:00,72.0,59.0,30.02,SE,140,7.0,16.0,64,0.00,,,0.00,,2013-03-30 00:32:00,
2013-03-29 20:42:00,72.0,59.0,30.02,SE,140,7.0,16.0,64,0.00,,,0.00,,2013-03-30 00:42:00,
2013-03-29 20:53:00,72.0,59.0,30.03,SE,133,6.0,12.0,64,0.00,,,0.00,,2013-03-30 00:53:00,
2013-03-29 21:02:00,72.0,59.0,30.03,SE,132,9.0,14.0,64,0.00,,,0.00,,2013-03-30 01:02:00,
2013-03-29 21:12:00,72.0,59.0,30.03,SE,132,9.0,14.0,64,0.00,,,0.00,,2013-03-30 01:12:00,
2013-03-29 21:22:00,71.0,58.0,30.02,SE,138,7.0,13.0,64,0.00,,,0.00,,2013-03-30 01:22:00,
2013-03-29 21:32:00,71.0,58.0,30.03,SE,138,5.0,12.0,64,0.00,,,0.00,,2013-03-30 01:32:00,
2013-03-29 21:42:00,71.0,58.0,30.03,SE,138,5.0,12.0,64,0.00,,,0.00,,2013-03-30 01:42:00,
2013-03-29 21:53:00,71.0,59.0,30.03,SE,137,9.0,15.0,65,0.00,,,0.00,,2013-03-30 01:53:00,
2013-03-29 22:02:00,71.0,59.0,30.03,SE,140,7.0,14.0,65,0.00,,,0.00,,2013-03-30 02:02:00,
2013-03-29 22:12:00,71.0,59.0,30.03,SE,140,7.0,14.0,65,0.00,,,0.00,,2013-03-30 02:12:00,
2013-03-29 22:22:00,70.0,58.0,30.03,SE,136,8.0,12.0,66,0.00,,,0.00,,2013-03-30 02:22:00,
2013-03-29 22:32:00,70.0,59.0,30.04,SE,144,7.0,14.0,67,0.00,,,0.00,,2013-03-30 02:32:00,
2013-03-29 22:42:00,70.0,59.0,30.04,SE,144,7.0,14.0,67,0.00,,,0.00,,2013-03-30 02:42:00,
2013-03-29 22:53:00,70.0,59.0,30.04,SE,134,7.0,14.0,68,0.00,,,0.00,,2013-03-30 02:53:00,
2013-03-29 23:02:00,70.0,59.0,30.04,ESE,118,7.0,13.0,69,0.00,,,0.00,,2013-03-30 03:02:00,
2013-03-29 23:12:00,70.0,59.0,30.04,SE,138,7.0,12.0,69,0.00,,,0.00,,2013-03-30 03:12:00,
2013-03-29 23:22:00,70.0,59.0,30.04,SE,138,7.0,12.0,69,0.00,,,0.00,,2013-03-30 03:22:00,
2013-03-29 23:33:00,69.0,59.0,30.03,ESE,118,7.0,12.0,70,0.00,,,0.00,,2013-03-30 03:33:00,
2013-03-29 23:43:00,69.0,59.0,30.03,ESE,118,7.0,12.0,70,0.00,,,0.00,,2013-03-30 03:43:00,
2013-03-29 23:53:00,69.0,59.0,30.01,ESE,112,12.0,18.0,70,0.00,,,0.00,,2013-03-30 03:53:00,